Showing default

SATMAR, 64551

Orbit data source: Space-Track

SATMAR, 64551 is a payload satellite owned by Alen Space (ES) in SSO that was launched on Mon, 23 Jun 2025 UTC via an FALCON 9 launch vehicle from the Air Force Western Test Range (AFWTR). Payload-class satellites include a variety of spacecraft equipped with specific instruments for various scientific and technological missions. These include communications satellites like Starlink; space stations such as the ISS; scientific satellites like the Hubble; Earth observation satellites from companies like Planet Labs, Umbra, and HawkEye 360; GPS; miniature CubeSats for education and research; and military/defense satellites.

Loading next visibility...
Identifier
64551, 2025-135Z
Orbit
SSO
Country
Flag of ESES / SPN
Related business
Manufacturer
Alen Space
Mission
Operational Commercial Communications
Bus & Motor
CUBESAT 6U, Unknown motor
Mass
10 kg wet, 10 kg dry
Launch date (UTC)
2025-06-23 (9 months ago)
Launch vehicle
FALCON 9
Launch site
Air Force Western Test Range (AFWTR)
Object type
Payload
Rocket body
Debris
Shape & HBR
Box, 0.1 m
Radar Cross Section
0.080 m², Medium (>0.1 m² and < 1m²)

Expand to show TLE details & history
Last TLE update: 19 hours ago

TLE from 19 hours ago
0 SATMAR
1 64551U 25135Z   26071.54779308  .00010382  00000-0  43925-3 0  9996
2 64551  97.4488 187.8134 0001017 162.8053 197.3218 15.23384443 40203
Epoch: 2026-03-12T13:08Z
TLE epoch observation values (Epoch: 2026-03-12T13:08:49.322Z)
Latitude
-0.00005°
Longitude
-179.58821°
Altitude
499.402 km
Speed
7.614 km/s
True Right ascension
12h 31m 15s
True Declination
0° 00' 00"
Sunlit
Object was in full shadow at epoch
Visualization orbit readout
Latitude
Unknown
Longitude
Unknown
Altitude
Unknown
Speed
Unknown
Apparent Right ascension
Unknown
Apparent Declination
Unknown
Sunlit
N/A
Visualization observer readout
Local Sidereal Time
12:51:53
Azimuth
Unknown
Elevation
Unknown
Doppler factor
Unknown
Orbital elements
Apogee altitude
493.303 km
Perigee altitude
491.905 km
Semi-major axis
6,870.741 km
Eccentricity
0.0001
Inclination
97.4488°
RAAN
187.8134°
Arg. of periapsis
162.8053°
True anomaly
197.31833°
Mean anomaly
197.3218°
Eccentric anomaly
197.32007°
Mean motion
3.81099 °/min
Orbital period
94.46 mins
BSTAR
0.00043925
Loading maneuver chart data...
Computing Atmospheric mass density...
Loading historical data...
Loading historical data...
Loading historical data...
Loading historical data...
Loading historical data...
Loading historical data...
Loading historical data...

Documentation

Showing up to 5 results
|